Location: Hoyos del Collado
(40.3594°N, 5.2003°W)
Time: 01:10:35
(UTC+00:00)

Hubble Space Telescope - Visible Passes

Search period start: 21 June 2024 00:00
Search period end: 01 July 2024 00:00
Orbit: 510 x 514 km, 28.5° (Epoch: 20 June)

Date Brightness Start Highest point End Pass type
(mag) Time Alt. Az. Time Alt. Az. Time Alt. Az.
28 Jun 3.0 04:17:27 10° S 04:18:27 11° SSE 04:19:28 10° SSE visible
29 Jun 2.9 03:57:49 10° S 03:59:13 12° SSE 04:00:35 10° SSE visible
30 Jun 2.8 03:39:02 11° S 03:39:56 12° S 03:41:35 10° SE visible
